User: anonymous   Login
Location: Unspecified
(0.0000°N, 0.0000°E)
Time: 18:24:41
(UTC+00:00)
Language:

Hamsat - Orbit

View from above orbital plane
View from above orbital plane
View from above satellite
View from above satellite

Ground track
Ground track

The orbit data is extracted from the following two-line orbital elements,

1 28650U 05017B   20226.75371001 +.00000147 +00000-0 +21412-4 0  9996
2 28650 097.8049 188.7575 0021716 278.0726 081.8028 14.89367456827760
Epoch (UTC): 13 August 2020 18:05:20
Eccentricity: 0.0021716
inclination: 97.8049°
perigee height: 585 km
apogee height: 615 km
right ascension of ascending node: 188.7575°
argument of perigee: 278.0726°
revolutions per day: 14.89367456
mean anomaly at epoch: 81.8028°
orbit number at epoch: 82776

The dashed part of the orbit path shows where the satellite is in the earth's shadow,  

DLR